Tracking 19795 objects as of 18-Jul-2019
HD Live streaming from Space Station
objects crossing your sky now

INTELSAT 505

Track INTELSAT 505 now!
INTELSAT 505 is classified as:


NORAD ID: 13595
Int'l Code: 1982-097A
Perigee: 36,233.7 km
Apogee: 36,415.2 km
Inclination: 15.0 °
Period: 1,463.3 minutes
Semi major axis: 42695 km
RCS: 0.1428 m2 (medium)
Launch date: September 28, 1982
Source: International Telecommunications Satellite Organization (ITSO)
Launch site: AIR FORCE EASTERN TEST RANGE (AFETR)
aabbcc
Your satellite tracking list
Your tracking list is empty




NASA's NSSDC Master Catalog

Two Line Element Set (TLE):
1 13595U 82097A   19198.77176875 -.00000221 +00000-0 +00000-0 0  9991
2 13595 014.9766 350.9807 0021257 351.8724 006.6504 00.98407954103165
Source of the keplerian elements: AFSPC